[[{"header":{"parameterUnit":"m.s-1","parameterCategory":2,"la1":30.2991,"la2":30.254,"lo1":-89.0895,"lo2":-89.0444,"dy":0.0017,"dx":0.0017,"nx":28,"ny":28,"refTime":"2024-05-08T09:00:00:Z","depth":"0","parameterNumber":2,"parameterNumberName":"U-component_of_CURRENTS"},"data":[0,0,0,0,0,0,0,0,0,0,0,0,0,0,0,0,0,0,0,0,0,0,0,0,0,0,0,0,0,0,0,0,0,0,0,0,0,0,0,0,0,0,0,0,0,0,0,0,0,0,0,0,0,0,0,0,0,0,0.3064,0.3065,0,0.3085,0.3085,0.3085,0.3067,0.3067,0.3066,0.3066,0.3056,0.3056,0.3056,0,0,0,0,0,0,0,0,0,0,0,0,0,0.3023,0.3023,0.3064,0.3065,0.3065,0.3085,0.3085,0.3085,0.3067,0.3067,0.3066,0.3066,0.3056,0.3056,0.3056,0,0,0,0,0,0,0,0,0,0,0,0,0,0.3039,0.3023,0.3064,0.3061,0.3061,0.3085,0.3085,0.3085,0.3067,0.3067,0.3066,0.3065,0.3056,0.3056,0.3056,0.3072,0,0,0.3057,0.3057,0,0,0,0,0,0,0,0,0.3038,0.304,0.3061,0.3061,0.3062,0.3076,0.3067,0.308,0.3068,0.3062,0.3066,0.3065,0.3062,0.3062,0.3063,0.3071,0.3071,0.3057,0.3057,0.3057,0.3057,0,0,0,0,0,0,0,0.3037,0.3039,0.307,0.3062,0.3062,0.3064,0.3065,0.3069,0.3063,0.3062,0.3062,0.3069,0.3061,0.3063,0.3063,0.307,0.3057,0.3057,0.3057,0.3057,0.313,0.3132,0,0,0,0,0,0,0.3041,0.3038,0.3069,0.3071,0.3051,0.3065,0.3066,0.3069,0.3063,0.3063,0.307,0.3068,0.3063,0.3063,0.3062,0.3104,0.3057,0.3057,0.3057,0.3128,0.3131,0.3133,0,0,0,0,0,0,0.304,0.3043,0.3068,0.3057,0.3061,0.3067,0.307,0.307,0.3077,0.307,0.3068,0.3078,0.3062,0.3062,0.3078,0.3103,0.3057,0.3058,0.3126,0.3129,0.3132,0.3173,0,0,0,0,0,0,0.3038,0.3042,0.3046,0.3058,0.3062,0.3088,0.3071,0.3071,0.3084,0.3082,0.3076,0.3074,0.3062,0.3078,0.3078,0.3102,0.3058,0.3124,0.3128,0.3131,0.3169,0.3176,0.3183,0,0,0,0,0,0.3037,0.3043,0.3046,0.305,0.3066,0.3089,0.3091,0.309,0.3085,0.3093,0.3093,0.3074,0.31,0.3079,0.308,0.3104,0.3122,0.3127,0.313,0.3166,0.3175,0.3182,0,0,0,0,0,0,0.3024,0.3042,0.3045,0.3056,0.3075,0.3087,0.3095,0.3099,0.3105,0.3103,0.3092,0.309,0.3118,0.311,0.3088,0.3138,0.3111,0.3115,0.3138,0.3146,0.3153,0.3152,0.3058,0,0,0,0,0,0.3025,0.3034,0.3056,0.3065,0.3076,0.3089,0.3098,0.3102,0.3112,0.3113,0.3111,0.3117,0.3136,0.3138,0.3149,0.317,0.3176,0.319,0.3197,0.3203,0.3204,0.3242,0.3252,0.3146,0.3146,0.3146,0,0,0.3023,0.3035,0.304,0.3064,0.3076,0.3097,0.3092,0.3112,0.313,0.3112,0.3132,0.3142,0.315,0.3177,0.3189,0.317,0.3239,0.3208,0.3212,0.3211,0.3247,0.3257,0.3266,0.3149,0.3148,0.3148,0,0,0.3025,0.3036,0.3045,0.3066,0.3094,0.3107,0.3117,0.3137,0.3146,0.3172,0.3172,0.3196,0.3212,0.3225,0.3234,0.3287,0.3278,0.3296,0.3321,0.3358,0.3366,0.3374,0.34,0.341,0.3293,0.3293,0.3293,0,0.3023,0.3036,0.3053,0.3073,0.3092,0.3114,0.3135,0.3154,0.3177,0.3194,0.3184,0.3236,0.3236,0.3283,0.33,0.3301,0.3318,0.3284,0.3365,0.3373,0.338,0.3405,0.3415,0.3296,0.3296,0.3295,0.3295,0,0.3032,0.3048,0.3059,0.309,0.3115,0.3138,0.3173,0.3198,0.3214,0.3233,0.3283,0.3294,0.3322,0.3335,0.3329,0.3388,0.3384,0.3373,0.3339,0.3393,0.3416,0.3426,0.3299,0.3298,0.3298,0.3297,0,0,0.3015,0.3056,0.306,0.3071,0.3127,0.314,0.3193,0.3238,0.3269,0.3299,0.3341,0.3379,0.3387,0.34,0.3406,0.3435,0.3497,0.3425,0.3425,0.3442,0.3579,0.3576,0.3586,0.3502,0.3504,0.3506,0.3577,0,0.3019,0.3044,0.3073,0.3102,0.312,0.3167,0.3208,0.3255,0.3301,0.3346,0.3382,0.3422,0.3413,0.3431,0.3462,0.3497,0.3524,0.3478,0.3532,0.3534,0.3517,0.3597,0.3528,0.3586,0.3586,0.3588,0.3589,0,0.3018,0.3036,0.3061,0.3101,0.3114,0.3136,0.3207,0.3251,0.3336,0.3371,0.343,0.3463,0.3526,0.35,0.3584,0.3559,0.357,0.3587,0.359,0.3577,0.3549,0.3533,0.3603,0.3574,0.3603,0.3602,0.3601,0,0.2982,0.3024,0.3037,0.3053,0.3109,0.3129,0.3166,0.3253,0.3309,0.3394,0.3449,0.3515,0.3566,0.3601,0.3651,0.3622,0.3739,0.3699,0.3705,0.3704,0.365,0.3641,0.3689,0.3746,0.3746,0.3746,0.3746,0,0.297,0.2977,0.3013,0.3017,0.3039,0.3093,0.3144,0.3197,0.3302,0.3369,0.3453,0.3525,0.3597,0.3678,0.3686,0.3747,0.3771,0.373,0.3733,0.3664,0.3656,0.3631,0.3607,0.3749,0.3748,0.3748,0.3747,0,0.2927,0.2953,0.2963,0.3005,0.302,0.3034,0.3128,0.3167,0.3279,0.3378,0.3412,0.3562,0.3669,0.3742,0.3816,0.3806,0.3758,0.385,0.3764,0.3756,0.371,0.369,0.3485,0.3391,0.3862,0.3863,0.3863,0,0.2908,0.2907,0.2938,0.2941,0.2956,0.2996,0.3025,0.3136,0.3194,0.3393,0.343,0.3595,0.3687,0.383,0.3857,0.3902,0.3778,0.3841,0.3765,0.3723,0.3703,0.3458,0.3375,0.371,0.371,0.3709,0.3708,0,0.2869,0.2875,0.2881,0.2892,0.2903,0.2929,0.2984,0.303,0.3167,0.3275,0.3412,0.3515,0.3699,0.3759,0.3857,0.3851,0.3684,0.3827,0.3808,0.362,0.3329,0.3236,0.3643,0.3702,0.3703,0.3703,0.3704,0.3704,0.2834,0.2825,0.283,0.2827,0.2838,0.2835,0.2833,0.2916,0.3003,0.3132,0.3297,0.3427,0.3654,0.3797,0.3777,0.3761,0.3632,0.3684,0.3675,0.3435,0.3304,0.3701,0.3747,0.3748,0.3749,0.3749,0.375,0,0.2779,0.2769,0.2767,0.2744,0.2712,0.2753,0.2779,0.2768,0.2817,0.3006,0.3124,0.3367,0.3489,0.363,0.3738,0.3656,0.3403,0.3569,0.3239,0.3176,0.3589,0.3551,0.3526,0.3526,0.3527,0.3527,0.3527,0.3527,0.275,0.2714,0.2701,0.2617,0.26,0.2528,0.2516,0.2531,0.2636,0.2766,0.2917,0.3071,0.3399,0.3642,0.3654,0.3568,0.3306,0.3133,0.309,0.3473,0.3482,0.349,0.345,0.3405,0.3405,0.2523,0.2518,0.2514]},{"header":{"parameterUnit":"m.s-1","parameterCategory":2,"la1":30.2991,"la2":30.254,"lo1":-89.0895,"lo2":-89.0444,"dy":0.0017,"dx":0.0017,"nx":28,"ny":28,"refTime":"2024-05-08T09:00:00:Z","depth":"0","parameterNumber":3,"parameterNumberName":"V-component_of_CURRENTS"},"data":[0,0,0,0,0,0,0,0,0,0,0,0,0,0,0,0,0,0,0,0,0,0,0,0,0,0,0,0,0,0,0,0,0,0,0,0,0,0,0,0,0,0,0,0,0,0,0,0,0,0,0,0,0,0,0,0,0,0,0.0304,0.0303,0,0.0246,0.0245,0.0244,0.0204,0.0204,0.0204,0.0204,0.0108,0.0105,0.0103,0,0,0,0,0,0,0,0,0,0,0,0,0,0.032,0.032,0.0304,0.0303,0.0303,0.0246,0.0245,0.0244,0.0204,0.0204,0.0204,0.0204,0.0109,0.0106,0.0103,0,0,0,0,0,0,0,0,0,0,0,0,0,0.0291,0.032,0.0304,0.0278,0.0275,0.0246,0.0245,0.0244,0.0204,0.0204,0.0204,0.0204,0.0109,0.0106,0.0102,0.0083,0,0,0.0091,0.0089,0,0,0,0,0,0,0,0,0.0293,0.029,0.0282,0.0279,0.0276,0.0234,0.0215,0.0189,0.0204,0.0229,0.0204,0.0204,0.0148,0.0141,0.0128,0.0078,0.0074,0.0091,0.0088,0.0087,0.0086,0,0,0,0,0,0,0,0.0295,0.0292,0.0279,0.0282,0.0278,0.0248,0.0244,0.021,0.0188,0.0227,0.0224,0.0221,0.0146,0.0132,0.0126,0.0073,0.0091,0.0088,0.0085,0.0084,0.0023,0.0024,0,0,0,0,0,0,0.0309,0.0294,0.0281,0.0277,0.0286,0.0248,0.0244,0.0246,0.0189,0.0181,0.0221,0.022,0.0138,0.013,0.0122,0.0122,0.0087,0.0083,0.0081,0.0023,0.0023,0.0024,0,0,0,0,0,0,0.031,0.0309,0.0283,0.0286,0.028,0.0249,0.0251,0.0245,0.0237,0.0186,0.0176,0.022,0.0138,0.0127,0.0107,0.0117,0.0082,0.0078,0.0022,0.0023,0.0024,0.0106,0,0,0,0,0,0,0.0311,0.031,0.0315,0.0287,0.0281,0.0279,0.0252,0.0244,0.0236,0.0233,0.0182,0.0172,0.0137,0.0113,0.0103,0.0112,0.0076,0.0021,0.0022,0.0023,0.0102,0.0109,0.0116,0,0,0,0,0,0.0312,0.0326,0.0316,0.0314,0.029,0.028,0.0274,0.0249,0.0236,0.0239,0.0208,0.0174,0.0113,0.011,0.0099,0.0107,0.0021,0.0022,0.0023,0.0099,0.0108,0.0115,0,0,0,0,0,0,0.0334,0.0322,0.0311,0.0319,0.0306,0.0274,0.0273,0.0256,0.0233,0.0231,0.0181,0.017,0.0155,0.0121,0.012,0.0093,0.0061,0.006,0.0123,0.013,0.0137,0.0155,0.0072,0,0,0,0,0,0.0342,0.0349,0.0331,0.0337,0.0333,0.0304,0.0296,0.0282,0.0259,0.0248,0.0213,0.0177,0.015,0.0134,0.0102,0.0088,0.0051,0.0085,0.0092,0.0098,0.0105,0.0064,0.0068,0.0028,0.0028,0.0028,0,0,0.0352,0.0346,0.035,0.0342,0.0327,0.0336,0.0299,0.0296,0.0303,0.0241,0.0236,0.0198,0.0152,0.0138,0.0128,0.0112,0.0089,0.0099,0.0105,0.0109,0.0066,0.007,0.0073,0.0029,0.0029,0.0029,0,0,0.0382,0.0372,0.039,0.0385,0.0374,0.036,0.0365,0.0341,0.0329,0.0319,0.0279,0.0252,0.0207,0.0179,0.0159,0.0181,0.0126,0.0169,0.0217,0.0177,0.018,0.0183,0.0142,0.014,0.0173,0.0173,0.0173,0,0.0394,0.0416,0.0393,0.041,0.0415,0.0379,0.0404,0.0388,0.036,0.0356,0.033,0.0271,0.0227,0.0216,0.0222,0.0196,0.0165,0.0192,0.0187,0.0188,0.0189,0.0147,0.0143,0.0177,0.0177,0.0176,0.0176,0,0.0439,0.0456,0.0467,0.0481,0.0482,0.0497,0.0478,0.0475,0.0453,0.0433,0.0412,0.0351,0.0319,0.0297,0.0264,0.0254,0.0227,0.02,0.0169,0.0198,0.0152,0.0147,0.0183,0.0182,0.018,0.0179,0,0,0.0471,0.0497,0.05,0.0523,0.0524,0.0533,0.0547,0.0551,0.0567,0.0518,0.0528,0.0465,0.0427,0.0402,0.0352,0.0313,0.0285,0.0266,0.0262,0.0232,0.0198,0.0199,0.0193,0.0258,0.0258,0.0258,0.0164,0,0.0516,0.0571,0.0568,0.0621,0.0651,0.063,0.065,0.0645,0.0627,0.0625,0.0555,0.0539,0.047,0.0455,0.0407,0.0322,0.0276,0.0313,0.017,0.0166,0.0168,0.0189,0.0251,0.0175,0.0159,0.0158,0.0158,0,0.0565,0.0597,0.0659,0.0704,0.0715,0.0737,0.0767,0.0783,0.0766,0.075,0.0715,0.0656,0.0599,0.0531,0.0396,0.0424,0.032,0.0242,0.0236,0.0206,0.0158,0.0143,0.0166,0.0033,0.0149,0.015,0.0151,0,0.0609,0.0663,0.0718,0.0732,0.0772,0.0794,0.0816,0.0819,0.0854,0.0831,0.0849,0.0754,0.0725,0.0584,0.0426,0.0408,0.0274,0.0225,0.0123,0.0121,0.013,0.0131,0.0015,0.012,0.012,0.0121,0.0121,0,0.0662,0.0705,0.0743,0.0774,0.0851,0.085,0.0926,0.0931,0.0955,0.1018,0.0921,0.0942,0.0738,0.0638,0.0466,0.0297,0.0302,0.0138,0.0102,0.0161,0.0165,0.0014,-0.0076,0.0117,0.0118,0.0119,0.0119,0,0.0701,0.0724,0.0796,0.0849,0.0876,0.093,0.1016,0.1069,0.108,0.116,0.1159,0.1085,0.0961,0.0753,0.053,0.0371,0.0113,0.012,0.0206,0.0182,-0.0042,-0.0129,-0.0289,-0.0374,-0.0013,-0.0014,-0.0014,0,0.0728,0.0769,0.0858,0.0912,0.0939,0.1023,0.109,0.113,0.12,0.126,0.1307,0.1214,0.1188,0.0868,0.0565,0.0275,0.011,0.0117,0.0086,-0.0037,-0.0162,-0.0217,-0.0281,0.0123,0.0124,0.0124,0.0125,0,0.0781,0.0809,0.0869,0.0987,0.1065,0.1171,0.1268,0.1346,0.1413,0.1486,0.1561,0.1546,0.127,0.1027,0.063,0.0406,0.0042,0.012,-0.0029,-0.0078,-0.0124,-0.0226,0.0158,0.013,0.013,0.0129,0.0129,0.0129,0.0821,0.0875,0.0957,0.1069,0.1169,0.1302,0.1404,0.1519,0.1658,0.18,0.1768,0.1832,0.1485,0.0965,0.0608,0.0088,0.0058,-0.0045,-0.0146,-0.0193,-0.0255,0.0144,0.0091,0.009,0.009,0.0089,0.0088,0,0.0872,0.0936,0.1038,0.1172,0.1288,0.1337,0.1514,0.163,0.1811,0.1982,0.2068,0.2037,0.1551,0.1037,0.0326,-0.0077,-0.0246,-0.0283,-0.0347,-0.041,-0.0063,-0.0034,-0.0089,-0.0089,-0.0089,-0.0089,-0.0088,-0.0088,0.0901,0.0999,0.1052,0.1246,0.1346,0.1514,0.1623,0.1813,0.1986,0.2247,0.2397,0.2478,0.2223,0.0865,-0.0038,-0.0303,-0.0609,-0.0631,-0.0815,-0.0567,-0.0552,-0.0537,-0.0531,-0.0688,-0.0689,-0.1081,-0.1085,-0.1089]}],[{"header":{"parameterUnit":"m.s-1","parameterCategory":2,"la1":30.2991,"la2":30.254,"lo1":-89.0895,"lo2":-89.0444,"dy":0.0017,"dx":0.0017,"nx":28,"ny":28,"refTime":"2024-05-08T09:00:00:Z","depth":"2","parameterNumber":2,"parameterNumberName":"U-component_of_CURRENTS"},"data":[0,0,0,0,0,0,0,0,0,0,0,0,0,0,0,0,0,0,0,0,0,0,0,0,0,0,0,0,0,0,0,0,0,0,0,0,0,0,0,0,0,0,0,0,0,0,0,0,0,0,0,0,0,0,0,0,0,0,0.3016,0.3017,0,0.3038,0.3038,0.3038,0.3024,0.3024,0.3023,0.3023,0.3017,0.3017,0.3017,0,0,0,0,0,0,0,0,0,0,0,0,0,0.2975,0.2975,0.3016,0.3017,0.3017,0.3038,0.3038,0.3038,0.3024,0.3023,0.3023,0.3023,0.3017,0.3017,0.3017,0,0,0,0,0,0,0,0,0,0,0,0,0,0.2991,0.2975,0.3016,0.3015,0.3015,0.3038,0.3038,0.3038,0.3024,0.3023,0.3023,0.3022,0.3017,0.3017,0.3017,0.303,0,0,0.3018,0.3018,0,0,0,0,0,0,0,0,0.299,0.2992,0.3015,0.3015,0.3016,0.303,0.3021,0.3035,0.3024,0.3018,0.3023,0.3022,0.3021,0.3021,0.3023,0.303,0.303,0.3018,0.3018,0.3019,0.3019,0,0,0,0,0,0,0,0.2989,0.2992,0.3022,0.3016,0.3016,0.3018,0.3019,0.3024,0.3019,0.3018,0.3018,0.3025,0.3021,0.3022,0.3022,0.303,0.3018,0.3019,0.3019,0.3019,0.3092,0.3093,0,0,0,0,0,0,0.2993,0.2991,0.3021,0.3023,0.3005,0.3019,0.302,0.3024,0.302,0.302,0.3026,0.3025,0.3022,0.3022,0.3022,0.3065,0.3019,0.3019,0.3019,0.309,0.3092,0.3094,0,0,0,0,0,0,0.2992,0.2995,0.302,0.301,0.3013,0.3021,0.3024,0.3025,0.3033,0.3027,0.3025,0.3035,0.3022,0.3022,0.3039,0.3064,0.3019,0.3019,0.3088,0.309,0.3093,0.3134,0,0,0,0,0,0,0.299,0.2994,0.2999,0.301,0.3014,0.304,0.3025,0.3025,0.3039,0.3038,0.3034,0.3033,0.3021,0.3039,0.3039,0.3063,0.302,0.3085,0.3089,0.3092,0.313,0.3138,0.3144,0,0,0,0,0,0.2989,0.2995,0.2999,0.3003,0.3019,0.3041,0.3043,0.3044,0.3041,0.3048,0.305,0.3033,0.306,0.304,0.304,0.3065,0.3084,0.3088,0.3092,0.3127,0.3136,0.3144,0,0,0,0,0,0,0.2977,0.2995,0.2999,0.301,0.3029,0.304,0.3048,0.3053,0.3061,0.306,0.305,0.3049,0.3078,0.307,0.3048,0.3099,0.3072,0.3076,0.3099,0.3107,0.3114,0.3113,0.302,0,0,0,0,0,0.2979,0.2988,0.3008,0.3018,0.303,0.3042,0.3052,0.3057,0.3067,0.307,0.3069,0.3076,0.3095,0.3098,0.3109,0.3131,0.3136,0.3151,0.3158,0.3163,0.3165,0.3202,0.3212,0.3107,0.3107,0.3107,0,0,0.2977,0.2989,0.2994,0.3017,0.303,0.305,0.3046,0.3067,0.3085,0.3069,0.309,0.31,0.3109,0.3137,0.3149,0.313,0.3199,0.3168,0.3173,0.3171,0.3207,0.3217,0.3226,0.3109,0.3109,0.3109,0,0,0.2979,0.2991,0.3,0.302,0.3048,0.3061,0.3071,0.3092,0.3102,0.3129,0.313,0.3154,0.3171,0.3184,0.3193,0.3246,0.3238,0.3255,0.328,0.3316,0.3325,0.3332,0.3358,0.3367,0.3253,0.3253,0.3253,0,0.2978,0.2991,0.3008,0.3027,0.3046,0.3068,0.3089,0.3109,0.3132,0.3149,0.3141,0.3194,0.3195,0.3241,0.3258,0.3259,0.3276,0.3244,0.3324,0.3331,0.3338,0.3362,0.3372,0.3255,0.3255,0.3255,0.3254,0,0.2986,0.3003,0.3014,0.3044,0.3069,0.3092,0.3126,0.3151,0.3169,0.3189,0.3239,0.3251,0.3279,0.3292,0.3288,0.3346,0.3342,0.3331,0.3298,0.3351,0.3373,0.3383,0.3259,0.3258,0.3257,0.3257,0,0,0.2971,0.301,0.3015,0.3026,0.3082,0.3094,0.3146,0.3191,0.3222,0.3253,0.3296,0.3334,0.3344,0.3356,0.3363,0.3392,0.3453,0.3383,0.3384,0.3399,0.3534,0.3525,0.3534,0.3459,0.3461,0.3463,0.3531,0,0.2974,0.2999,0.3028,0.3057,0.3074,0.3121,0.3161,0.3208,0.3253,0.3299,0.3336,0.3377,0.3369,0.3388,0.3419,0.3454,0.348,0.3436,0.3488,0.3489,0.3467,0.3545,0.3243,0.3279,0.354,0.3542,0.3543,0,0.2973,0.2991,0.3016,0.3056,0.3069,0.3091,0.3161,0.3204,0.3289,0.3324,0.3384,0.3417,0.348,0.3456,0.3539,0.3514,0.3526,0.3542,0.3545,0.3527,0.3498,0.3269,0.3286,0.3558,0.3557,0.3556,0.3555,0,0.2938,0.298,0.2993,0.3009,0.3064,0.3085,0.3122,0.3208,0.3263,0.3348,0.3403,0.3469,0.352,0.3555,0.3604,0.3576,0.369,0.3651,0.3651,0.365,0.3398,0.3372,0.3698,0.3698,0.3698,0.3698,0.3697,0,0.2926,0.2935,0.297,0.2975,0.2998,0.3051,0.3102,0.3155,0.3259,0.3325,0.3409,0.3479,0.3551,0.3629,0.3638,0.3695,0.3721,0.3675,0.3678,0.3406,0.3382,0.3621,0.3611,0.37,0.37,0.3699,0.3699,0,0.2885,0.2911,0.2921,0.2964,0.2979,0.2995,0.3089,0.3128,0.3239,0.3336,0.3371,0.3516,0.3618,0.3691,0.3763,0.3751,0.3789,0.379,0.3473,0.3438,0.3708,0.37,0.3794,0.3795,0.3795,0.3795,0.3796,0,0.2866,0.2865,0.2898,0.2902,0.2918,0.2959,0.2989,0.3098,0.3156,0.335,0.3385,0.3546,0.3628,0.3764,0.375,0.3781,0.3831,0.3529,0.3423,0.3731,0.3723,0.3714,0.3705,0.3095,0.3089,0.3085,0.3081,0,0.2827,0.2835,0.2842,0.2854,0.2868,0.2893,0.2949,0.2994,0.3128,0.323,0.3359,0.3453,0.3593,0.3511,0.3587,0.3551,0.3503,0.3444,0.3841,0.3142,0.3084,0.3073,0.3084,0.3041,0.3045,0.3048,0.305,0.3052,0.2794,0.2786,0.2793,0.2791,0.2804,0.2802,0.2799,0.2869,0.2948,0.3039,0.3208,0.3245,0.3306,0.3276,0.3186,0.3115,0.336,0.3198,0.3205,0.3219,0.3151,0.3099,0.3045,0.3049,0.3052,0.3055,0.3058,0,0.2735,0.2732,0.2731,0.2711,0.2674,0.2722,0.2746,0.2708,0.2733,0.2846,0.2927,0.2741,0.2723,0.2772,0.2611,0.2642,0.2534,0.2528,0.235,0.2396,0.2435,0.2318,0.1996,0.1992,0.1989,0.1985,0,0,0.2705,0.2669,0.2656,0.2572,0.2563,0.2482,0.247,0.2429,0.2462,0.2428,0.2426,0.2619,0.2738,0.2338,0.2297,0.2121,0.2226,0.2029,0.2894,0.2734,0.2767,0.2853,0.2733,0,0,0,0,0]},{"header":{"parameterUnit":"m.s-1","parameterCategory":2,"la1":30.2991,"la2":30.254,"lo1":-89.0895,"lo2":-89.0444,"dy":0.0017,"dx":0.0017,"nx":28,"ny":28,"refTime":"2024-05-08T09:00:00:Z","depth":"2","parameterNumber":3,"parameterNumberName":"V-component_of_CURRENTS"},"data":[0,0,0,0,0,0,0,0,0,0,0,0,0,0,0,0,0,0,0,0,0,0,0,0,0,0,0,0,0,0,0,0,0,0,0,0,0,0,0,0,0,0,0,0,0,0,0,0,0,0,0,0,0,0,0,0,0,0,0.0242,0.0241,0,0.0185,0.0185,0.0184,0.0146,0.0146,0.0146,0.0146,0.0052,0.005,0.0048,0,0,0,0,0,0,0,0,0,0,0,0,0,0.0257,0.0257,0.0242,0.0241,0.0241,0.0185,0.0185,0.0184,0.0146,0.0146,0.0146,0.0145,0.0053,0.005,0.0047,0,0,0,0,0,0,0,0,0,0,0,0,0,0.0229,0.0257,0.0242,0.0217,0.0214,0.0186,0.0184,0.0183,0.0146,0.0146,0.0146,0.0145,0.0054,0.0051,0.0047,0.0028,0,0,0.0036,0.0034,0,0,0,0,0,0,0,0,0.023,0.0228,0.0221,0.0218,0.0215,0.0174,0.0156,0.013,0.0146,0.017,0.0146,0.0145,0.0091,0.0084,0.0072,0.0023,0.0019,0.0036,0.0034,0.0032,0.0031,0,0,0,0,0,0,0,0.0232,0.023,0.0217,0.022,0.0217,0.0188,0.0184,0.015,0.013,0.0168,0.0165,0.0162,0.0089,0.0075,0.0069,0.0018,0.0036,0.0033,0.003,0.0029,-0.003,-0.003,0,0,0,0,0,0,0.0247,0.0232,0.0219,0.0216,0.0225,0.0188,0.0184,0.0186,0.0131,0.0123,0.0162,0.016,0.0082,0.0074,0.0066,0.0067,0.0032,0.0029,0.0027,-0.0031,-0.003,-0.003,0,0,0,0,0,0,0.0247,0.0246,0.0222,0.0224,0.0219,0.0189,0.0191,0.0185,0.0177,0.0127,0.0118,0.0162,0.0081,0.0071,0.0051,0.0062,0.0027,0.0024,-0.0032,-0.0031,-0.003,0.0052,0,0,0,0,0,0,0.0248,0.0247,0.0252,0.0225,0.0219,0.0218,0.0191,0.0184,0.0176,0.0174,0.0124,0.0115,0.008,0.0057,0.0048,0.0057,0.0021,-0.0032,-0.0031,-0.003,0.0048,0.0055,0.0061,0,0,0,0,0,0.0249,0.0263,0.0253,0.0251,0.0229,0.0218,0.0213,0.0189,0.0177,0.018,0.015,0.0117,0.0057,0.0055,0.0044,0.0052,-0.0033,-0.0031,-0.003,0.0045,0.0054,0.0061,0,0,0,0,0,0,0.0271,0.0259,0.0248,0.0258,0.0244,0.0213,0.0213,0.0196,0.0174,0.0172,0.0124,0.0113,0.0099,0.0065,0.0064,0.0038,0.0006,0.0006,0.0068,0.0075,0.0082,0.01,0.0018,0,0,0,0,0,0.028,0.0287,0.0268,0.0275,0.0271,0.0243,0.0235,0.0222,0.0199,0.0189,0.0155,0.012,0.0094,0.0079,0.0047,0.0033,-0.0003,0.0031,0.0037,0.0043,0.0051,0.001,0.0013,-0.0025,-0.0025,-0.0025,0,0,0.029,0.0284,0.0287,0.028,0.0265,0.0275,0.0238,0.0236,0.0243,0.0182,0.0179,0.0141,0.0095,0.0083,0.0073,0.0057,0.0035,0.0045,0.005,0.0054,0.0011,0.0015,0.0018,-0.0024,-0.0025,-0.0025,0,0,0.0319,0.0309,0.0327,0.0323,0.0312,0.0299,0.0304,0.0281,0.0269,0.026,0.0221,0.0195,0.0151,0.0123,0.0103,0.0126,0.0071,0.0114,0.0161,0.0121,0.0124,0.0126,0.0086,0.0084,0.0117,0.0118,0.0118,0,0.0331,0.0353,0.033,0.0347,0.0353,0.0318,0.0343,0.0327,0.03,0.0296,0.0271,0.0213,0.0171,0.0159,0.0166,0.014,0.0109,0.0137,0.013,0.0131,0.0132,0.0091,0.0087,0.0122,0.0121,0.0121,0.012,0,0.0376,0.0393,0.0404,0.0418,0.0419,0.0434,0.0416,0.0413,0.0392,0.0372,0.0352,0.0292,0.026,0.024,0.0208,0.0197,0.017,0.0144,0.0113,0.0141,0.0095,0.009,0.0128,0.0126,0.0125,0.0124,0,0,0.0408,0.0433,0.0436,0.0459,0.0461,0.047,0.0483,0.0487,0.0503,0.0456,0.0465,0.0404,0.0367,0.0342,0.0293,0.0255,0.0227,0.0208,0.0204,0.0175,0.014,0.0138,0.0131,0.02,0.0199,0.0199,0.0107,0,0.0452,0.0506,0.0503,0.0556,0.0585,0.0565,0.0585,0.058,0.0562,0.056,0.0491,0.0476,0.0408,0.0395,0.0347,0.0263,0.0217,0.0254,0.0113,0.0109,0.0108,0.0127,0.0132,0.0052,0.0102,0.0101,0.01,0,0.05,0.0532,0.0593,0.0637,0.0648,0.067,0.0699,0.0715,0.0697,0.0682,0.0647,0.059,0.0534,0.0468,0.0334,0.0362,0.026,0.0183,0.0177,0.0144,0.0098,0.0031,0.004,0.0091,0.0092,0.0092,0.0093,0,0.0544,0.0597,0.0652,0.0665,0.0705,0.0726,0.0748,0.0751,0.0784,0.0761,0.0778,0.0685,0.0656,0.0518,0.0362,0.0345,0.0211,0.0163,0.0061,0.0059,0.002,0.0016,0.0061,0.0061,0.0061,0.0061,0.0061,0,0.0596,0.0639,0.0677,0.0707,0.0782,0.0782,0.0856,0.0861,0.0883,0.0943,0.0849,0.0867,0.0667,0.0567,0.04,0.0231,0.0237,0.0076,0.0039,0.0049,0.0049,0.0047,0.0047,0.0058,0.0058,0.0059,0.006,0,0.0635,0.0658,0.0729,0.0781,0.0807,0.0861,0.0945,0.0995,0.1006,0.1081,0.108,0.1004,0.0881,0.0677,0.0457,0.0301,0.0122,0.0054,0.0083,0.0052,-0.002,-0.0015,-0.0077,-0.0078,-0.0079,-0.0079,-0.008,0,0.066,0.0701,0.0789,0.0842,0.087,0.0952,0.1017,0.1056,0.1122,0.1177,0.122,0.1126,0.1093,0.0775,0.0468,0.018,0.0137,-0.0012,-0.0049,-0.0003,-0.0033,-0.0027,-0.0021,-0.0078,-0.0078,-0.0079,-0.0079,0,0.0712,0.0741,0.0799,0.0915,0.0992,0.1094,0.1188,0.1263,0.1326,0.1391,0.1458,0.1436,0.115,0.0862,0.0467,0.0259,0.0033,-0.0027,0.0009,-0.0029,-0.0008,-0.0035,-0.0029,-0.0082,-0.0082,-0.0081,-0.0081,-0.0081,0.075,0.0802,0.0884,0.0994,0.1092,0.122,0.1319,0.1415,0.1542,0.1636,0.1618,0.1584,0.1261,0.0755,0.0406,0.0021,0.0042,-0.0113,-0.0111,-0.0108,-0.0077,-0.0056,-0.0135,-0.0135,-0.0135,-0.0135,-0.0135,0,0.0795,0.0861,0.0961,0.1092,0.1198,0.1255,0.1424,0.1499,0.1649,0.1732,0.1778,0.1466,0.1161,0.0789,0.0231,-0.0087,-0.0132,-0.0207,-0.0191,-0.0186,-0.0181,-0.0154,-0.0232,-0.0233,-0.0235,-0.0235,0,0,0.082,0.0913,0.0965,0.1149,0.1253,0.14,0.1506,0.161,0.1693,0.1759,0.1748,0.1698,0.1278,0.0851,0.041,0.0094,0.0021,0.0016,0.0127,0.0202,0.0211,-0.0095,-0.0042,0,0,0,0,0]}],[{"header":{"parameterUnit":"m.s-1","parameterCategory":2,"la1":30.2991,"la2":30.254,"lo1":-89.0895,"lo2":-89.0444,"dy":0.0017,"dx":0.0017,"nx":28,"ny":28,"refTime":"2024-05-08T09:00:00:Z","depth":"4","parameterNumber":2,"parameterNumberName":"U-component_of_CURRENTS"},"data":[0,0,0,0,0,0,0,0,0,0,0,0,0,0,0,0,0,0,0,0,0,0,0,0,0,0,0,0,0,0,0,0,0,0,0,0,0,0,0,0,0,0,0,0,0,0,0,0,0,0,0,0,0,0,0,0,0,0,0.1923,0.1924,0,0.1993,0.1993,0.1994,0.2054,0.2055,0.2056,0.2057,0.2144,0.2145,0.2147,0,0,0,0,0,0,0,0,0,0,0,0,0,0.1832,0.1833,0.1923,0.1924,0.1925,0.1993,0.1993,0.1994,0.2054,0.2055,0.2056,0.2057,0.2143,0.2145,0.2147,0,0,0,0,0,0,0,0,0,0,0,0,0,0.1881,0.1833,0.1922,0.1965,0.1969,0.1993,0.1993,0.1994,0.2054,0.2055,0.2056,0.2058,0.2143,0.2145,0.2147,0.2134,0,0,0.2154,0.2155,0,0,0,0,0,0,0,0,0.1878,0.1884,0.1957,0.1962,0.1967,0.2018,0.1993,0.2043,0.2053,0.2019,0.2057,0.2058,0.2104,0.2109,0.2116,0.2138,0.2142,0.2154,0.2155,0.2156,0.2157,0,0,0,0,0,0,0,0.1875,0.1881,0.1948,0.1958,0.1964,0.1977,0.1985,0.2003,0.2052,0.2022,0.2027,0.2038,0.2106,0.2114,0.2118,0.2143,0.2154,0.2156,0.2157,0.2158,0.2295,0.2297,0,0,0,0,0,0,0.187,0.1878,0.1946,0.195,0.1928,0.1978,0.1987,0.1998,0.2051,0.2061,0.2037,0.2041,0.2109,0.2116,0.2122,0.2227,0.2156,0.2158,0.216,0.2293,0.2296,0.2298,0,0,0,0,0,0,0.1868,0.1875,0.1943,0.1918,0.1928,0.1978,0.199,0.1999,0.2049,0.2063,0.2073,0.2083,0.211,0.2119,0.2179,0.2227,0.2159,0.2161,0.229,0.2294,0.2297,0.2362,0,0,0,0,0,0,0.1865,0.1874,0.19,0.1917,0.1929,0.1983,0.199,0.2,0.2052,0.2059,0.2105,0.2112,0.2112,0.2176,0.2182,0.2228,0.2163,0.2287,0.2292,0.2296,0.2357,0.2368,0.2376,0,0,0,0,0,0.1861,0.1882,0.19,0.191,0.1956,0.1984,0.1992,0.203,0.2054,0.2079,0.2119,0.2113,0.2208,0.218,0.2186,0.2234,0.2285,0.229,0.2296,0.2353,0.2366,0.2376,0,0,0,0,0,0,0.1857,0.1891,0.1911,0.1944,0.1976,0.1996,0.2029,0.2053,0.2102,0.2125,0.2136,0.2146,0.2218,0.2218,0.2187,0.2288,0.2248,0.2255,0.229,0.2302,0.2311,0.2306,0.2165,0,0,0,0,0,0.1867,0.1897,0.1925,0.1958,0.1977,0.2012,0.2037,0.2064,0.21,0.2125,0.2158,0.2198,0.2235,0.2264,0.2291,0.2342,0.234,0.238,0.239,0.2398,0.24,0.2441,0.2454,0.2315,0.2315,0.2315,0,0,0.1875,0.1899,0.1918,0.196,0.1991,0.2022,0.2031,0.2081,0.2121,0.2125,0.2204,0.2233,0.2257,0.2319,0.2351,0.2331,0.2439,0.2404,0.2411,0.2409,0.2448,0.2461,0.2473,0.2319,0.2318,0.2318,0,0,0.189,0.193,0.1956,0.1986,0.2039,0.2059,0.2083,0.2129,0.2171,0.2236,0.2257,0.2315,0.2372,0.2397,0.2415,0.2494,0.2487,0.2517,0.2563,0.2604,0.2615,0.2625,0.2642,0.2653,0.2523,0.2523,0.2523,0,0.1904,0.1937,0.1969,0.2,0.2034,0.208,0.2116,0.2157,0.2223,0.2262,0.2276,0.2383,0.2405,0.2475,0.2509,0.2515,0.2533,0.2514,0.2615,0.2625,0.2634,0.2649,0.266,0.2527,0.2526,0.2526,0.2525,0,0.1922,0.1968,0.1988,0.2043,0.2082,0.2125,0.2178,0.2237,0.2294,0.2332,0.2432,0.2469,0.253,0.2555,0.2558,0.2643,0.2633,0.262,0.258,0.2651,0.2663,0.2674,0.2532,0.2531,0.2529,0.2529,0,0,0.1903,0.1985,0.1998,0.2032,0.2114,0.2139,0.2222,0.2295,0.2354,0.2433,0.2509,0.2586,0.2619,0.2642,0.2665,0.2705,0.2784,0.2701,0.2701,0.2707,0.2873,0.2694,0.2687,0.2798,0.28,0.2802,0.2855,0,0.1914,0.1971,0.2018,0.2086,0.2119,0.2194,0.2259,0.2337,0.2414,0.2498,0.2565,0.2646,0.2649,0.2698,0.2741,0.278,0.2816,0.2771,0.2811,0.2812,0.2636,0.2694,0.2809,0.2863,0.2865,0.2867,0.2868,0,0.1909,0.1953,0.2019,0.2107,0.2131,0.2185,0.2301,0.2368,0.2491,0.2555,0.265,0.2704,0.2799,0.2783,0.2881,0.2859,0.2874,0.2889,0.2892,0.2705,0.2651,0.2778,0.2886,0.2885,0.2883,0.2882,0.2881,0,0.1857,0.1949,0.2004,0.2035,0.2142,0.2202,0.2273,0.2395,0.247,0.2607,0.2678,0.2779,0.2855,0.29,0.2946,0.2931,0.3031,0.3003,0.285,0.2838,0.2953,0.2942,0.3057,0.3057,0.3057,0.3057,0.3057,0,0.1827,0.1874,0.199,0.2017,0.2094,0.2184,0.2287,0.2371,0.2511,0.2589,0.2711,0.2779,0.2895,0.2964,0.2978,0.2944,0.3058,0.286,0.2841,0.298,0.2971,0.296,0.2948,0.3059,0.3058,0.3058,0.3058,0,0.1754,0.1833,0.1898,0.2024,0.2071,0.213,0.2294,0.2355,0.2505,0.2616,0.267,0.282,0.2896,0.2977,0.3051,0.2966,0.296,0.2917,0.3065,0.3053,0.2729,0.2721,0.2737,0.2731,0.2726,0.2722,0.2719,0,0.1716,0.1746,0.1888,0.1935,0.2002,0.2112,0.2179,0.2338,0.2403,0.2608,0.2636,0.2784,0.2858,0.2816,0.291,0.2913,0.288,0.2846,0.2773,0.2718,0.2699,0.2698,0.2696,0.2711,0.271,0.2708,0.2707,0,0.1645,0.1716,0.1772,0.187,0.195,0.2024,0.2135,0.2169,0.2337,0.2496,0.2538,0.2579,0.2657,0.2696,0.2725,0.2721,0.2848,0.2793,0.2802,0.2734,0.2686,0.2672,0.2676,0.269,0.2692,0.2694,0.2695,0,0.1601,0.1623,0.1713,0.178,0.1873,0.1901,0.1976,0.2039,0.2122,0.2332,0.2338,0.2487,0.2625,0.2598,0.2625,0.261,0.2562,0.2459,0.2484,0.2505,0.2403,0.2307,0.2178,0,0,0,0,0,0.1545,0.1557,0.1614,0.1672,0.1753,0.1806,0.1924,0.1999,0.2157,0.2124,0.2225,0.2281,0.2318,0.2396,0.2334,0.2528,0.2579,0.2443,0.2475,0.2595,0.2614,0.2516,0,0,0,0,0,0,0.1507,0.156,0.1573,0.1562,0.158,0.1649,0.1716,0.1823,0.1812,0.1982,0.2015,0.214,0.2215,0.2335,0.2292,0.2314,0.2284,0.2539,0.2532,0.2583,0.2601,0.2617,0.2523,0,0,0,0,0]},{"header":{"parameterUnit":"m.s-1","parameterCategory":2,"la1":30.2991,"la2":30.254,"lo1":-89.0895,"lo2":-89.0444,"dy":0.0017,"dx":0.0017,"nx":28,"ny":28,"refTime":"2024-05-08T09:00:00:Z","depth":"4","parameterNumber":3,"parameterNumberName":"V-component_of_CURRENTS"},"data":[0,0,0,0,0,0,0,0,0,0,0,0,0,0,0,0,0,0,0,0,0,0,0,0,0,0,0,0,0,0,0,0,0,0,0,0,0,0,0,0,0,0,0,0,0,0,0,0,0,0,0,0,0,0,0,0,0,0,0.0092,0.0091,0,0.0062,0.0061,0.0061,0.0037,0.0037,0.0037,0.0037,-0.0022,-0.0024,-0.0025,0,0,0,0,0,0,0,0,0,0,0,0,0,0.0091,0.0091,0.0092,0.0091,0.0091,0.0062,0.0061,0.0061,0.0037,0.0037,0.0037,0.0036,-0.0022,-0.0024,-0.0025,0,0,0,0,0,0,0,0,0,0,0,0,0,0.0078,0.0091,0.0092,0.0077,0.0075,0.0062,0.0061,0.0061,0.0037,0.0037,0.0037,0.0036,-0.0021,-0.0023,-0.0026,-0.0035,0,0,-0.0032,-0.0033,0,0,0,0,0,0,0,0,0.0079,0.0078,0.0079,0.0078,0.0076,0.0054,0.0039,0.0028,0.0037,0.005,0.0037,0.0036,0.0001,-0.0003,-0.0009,-0.0038,-0.004,-0.0032,-0.0034,-0.0035,-0.0035,0,0,0,0,0,0,0,0.008,0.0079,0.0079,0.0079,0.0077,0.0058,0.0057,0.0037,0.0026,0.0049,0.0048,0.0046,0.0,-0.0007,-0.0011,-0.0041,-0.0032,-0.0034,-0.0036,-0.0036,-0.0069,-0.0068,0,0,0,0,0,0,0.0088,0.008,0.008,0.0078,0.0078,0.0059,0.0057,0.006,0.0027,0.0022,0.0046,0.0045,-0.0003,-0.0008,-0.0013,-0.0004,-0.0035,-0.0037,-0.0038,-0.0069,-0.0068,-0.0068,0,0,0,0,0,0,0.0088,0.0088,0.0081,0.0079,0.0077,0.006,0.0063,0.006,0.0057,0.0025,0.0019,0.0048,-0.0003,-0.001,-0.0019,-0.0007,-0.0038,-0.004,-0.007,-0.0069,-0.0068,-0.0,0,0,0,0,0,0,0.0088,0.0089,0.0094,0.008,0.0077,0.0083,0.0063,0.0059,0.0057,0.0055,0.0025,0.0019,-0.0004,-0.0015,-0.0021,-0.0011,-0.0041,-0.007,-0.0069,-0.0068,-0.0003,0.0002,0.0007,0,0,0,0,0,0.0088,0.0101,0.0095,0.0095,0.0085,0.0083,0.0081,0.0066,0.0057,0.0062,0.0043,0.002,-0.0015,-0.0017,-0.0023,-0.0014,-0.007,-0.0069,-0.0068,-0.0006,0.0001,0.0007,0,0,0,0,0,0,0.0103,0.0099,0.0092,0.0103,0.0097,0.008,0.0083,0.0072,0.0061,0.006,0.0027,0.0021,0.0015,-0.0008,-0.001,-0.0021,-0.0047,-0.0048,0.0003,0.0009,0.0014,0.0027,-0.0043,0,0,0,0,0,0.0109,0.0118,0.0109,0.0117,0.0116,0.01,0.0097,0.0089,0.0077,0.0072,0.0051,0.0029,0.0013,0.0005,-0.0015,-0.0019,-0.005,-0.0019,-0.0013,-0.0008,-0.0003,-0.004,-0.0038,-0.0065,-0.0065,-0.0065,0,0,0.0117,0.0116,0.0121,0.012,0.0113,0.0125,0.0098,0.0101,0.0111,0.0067,0.0072,0.0046,0.0016,0.0013,0.0008,-0.0004,-0.0017,-0.0007,-0.0003,-0.0,-0.0039,-0.0036,-0.0034,-0.0064,-0.0064,-0.0064,0,0,0.014,0.0137,0.0153,0.0154,0.0151,0.0145,0.015,0.0138,0.0133,0.0133,0.0105,0.0088,0.0064,0.0046,0.0034,0.0055,0.0011,0.0048,0.0087,0.0051,0.0053,0.0054,0.0021,0.0019,0.0052,0.0052,0.0052,0,0.0149,0.017,0.0156,0.0173,0.0182,0.016,0.0183,0.0176,0.0163,0.0162,0.0144,0.0109,0.008,0.0078,0.0085,0.0067,0.0041,0.0067,0.0058,0.0059,0.0059,0.0025,0.0021,0.0055,0.0055,0.0055,0.0054,0,0.0184,0.0202,0.0213,0.023,0.0237,0.0253,0.0247,0.0248,0.0236,0.0226,0.0216,0.0174,0.0156,0.0141,0.012,0.0113,0.0092,0.0069,0.0045,0.0066,0.0028,0.0024,0.006,0.0059,0.0058,0.0057,0,0,0.0202,0.0233,0.0237,0.0259,0.0271,0.0283,0.0301,0.0311,0.0326,0.0297,0.0307,0.0269,0.0242,0.0226,0.0191,0.0158,0.0134,0.0121,0.0118,0.0093,0.0057,0.0041,0.0033,0.011,0.011,0.0109,0.0032,0,0.0235,0.0282,0.0289,0.0338,0.0364,0.0359,0.0382,0.0386,0.0377,0.0379,0.0331,0.0325,0.0277,0.027,0.023,0.016,0.0125,0.0157,0.0036,0.0032,0.0019,0.0028,0.0108,0.0028,0.0027,0.0026,0.0025,0,0.0268,0.0298,0.0353,0.04,0.0411,0.0438,0.0471,0.049,0.0484,0.0476,0.0454,0.0414,0.0373,0.0323,0.0213,0.0237,0.0156,0.0092,0.0087,0.0045,0.0007,-0.0001,0.0016,0.0017,0.0018,0.0018,0.0019,0,0.0289,0.0343,0.0392,0.0408,0.0455,0.048,0.0507,0.052,0.0547,0.0541,0.0554,0.0487,0.0464,0.0354,0.0226,0.0219,0.0094,0.0066,-0.0028,-0.003,-0.0022,-0.0023,-0.0018,-0.0018,-0.0018,-0.0018,-0.0018,0,0.0319,0.0358,0.0409,0.0435,0.0502,0.052,0.0584,0.0597,0.0623,0.0666,0.0611,0.0614,0.047,0.0381,0.0251,0.0103,0.0111,-0.0019,-0.005,0.0008,0.0012,-0.0026,-0.0026,-0.0021,-0.002,-0.002,-0.0019,0,0.033,0.0363,0.0425,0.0486,0.0516,0.0563,0.0647,0.0687,0.0711,0.0763,0.0767,0.071,0.0597,0.0442,0.0261,0.0146,-0.0003,-0.0061,0.0022,-0.0004,-0.0111,-0.0107,-0.0171,-0.0172,-0.0173,-0.0174,-0.0175,0,0.0339,0.0372,0.0462,0.0508,0.0541,0.0618,0.0675,0.0727,0.0774,0.0819,0.0841,0.0762,0.0699,0.0448,0.0268,0.002,-0.0024,-0.0105,-0.0119,-0.0102,-0.0127,-0.012,-0.0115,-0.0176,-0.0177,-0.0177,-0.0177,0,0.0352,0.0386,0.0436,0.0534,0.0605,0.0691,0.0773,0.0817,0.088,0.0905,0.0905,0.0786,0.0659,0.0452,0.0262,0.008,-0.0054,-0.0117,-0.0116,-0.013,-0.011,-0.0132,-0.0125,-0.0181,-0.018,-0.018,-0.018,0,0.0359,0.0395,0.0466,0.0553,0.0645,0.0733,0.0783,0.0845,0.0899,0.0947,0.094,0.0817,0.0746,0.0483,0.0307,0.0128,0.0071,-0.0002,-0.0009,-0.0007,0.0055,0.0106,0.0078,0,0,0,0,0,0.0363,0.0404,0.048,0.0576,0.0669,0.0729,0.0834,0.0876,0.0941,0.095,0.0951,0.0836,0.0596,0.0495,0.0314,0.0256,0.0019,0.0033,-0.0074,-0.02,-0.0196,-0.0153,0,0,0,0,0,0,0.0363,0.0428,0.0471,0.058,0.0648,0.0756,0.0827,0.0875,0.0882,0.0921,0.0801,0.0768,0.0533,0.0698,0.0303,0.0251,0.0152,-0.007,-0.0074,-0.0203,-0.0199,-0.0196,-0.015,0,0,0,0,0]}]]